TimeCST,TemperatureF,Dew PointF,Humidity,Sea Level PressureIn,VisibilityMPH,Wind Direction,Wind SpeedMPH,Gust SpeedMPH,PrecipitationIn,Events,Conditions,WindDirDegrees,DateUTC
12:15 AM,15.6,13.5,91,30.38,10.0,Calm,Calm,-,N/A,,Clear,0,2013-01-10 06:15:00
12:35 AM,14.5,12.9,93,30.39,10.0,Calm,Calm,-,N/A,,Clear,0,2013-01-10 06:35:00
12:55 AM,14.7,12.6,91,30.40,10.0,SSW,4.6,-,N/A,,Clear,200,2013-01-10 06:55:00
2:15 AM,17.6,15.8,93,30.44,10.0,South,3.5,-,N/A,,Clear,170,2013-01-10 08:15:00
2:35 AM,17.8,15.6,91,30.44,10.0,Calm,Calm,-,N/A,,Clear,0,2013-01-10 08:35:00
2:55 AM,17.6,15.8,93,30.44,10.0,Calm,Calm,-,N/A,,Clear,0,2013-01-10 08:55:00
3:15 AM,14.5,12.9,93,30.43,10.0,Calm,Calm,-,N/A,,Clear,0,2013-01-10 09:15:00
3:35 AM,16.9,15.4,94,30.44,10.0,Calm,Calm,-,N/A,,Clear,0,2013-01-10 09:35:00
3:55 AM,14.2,12.6,93,30.43,10.0,Calm,Calm,-,N/A,,Clear,0,2013-01-10 09:55:00
4:15 AM,13.5,11.8,93,30.43,10.0,Calm,Calm,-,N/A,,Clear,0,2013-01-10 10:15:00
4:35 AM,13.1,11.7,94,30.42,10.0,Calm,Calm,-,N/A,,Clear,0,2013-01-10 10:35:00
4:55 AM,13.5,12.0,94,30.42,10.0,Calm,Calm,-,N/A,,Clear,0,2013-01-10 10:55:00
5:35 AM,12.7,11.1,93,30.42,10.0,Calm,Calm,-,N/A,,Clear,0,2013-01-10 11:35:00
5:55 AM,12.0,9.9,91,30.42,10.0,Calm,Calm,-,N/A,,Clear,0,2013-01-10 11:55:00
6:15 AM,12.2,10.6,93,30.42,10.0,Calm,Calm,-,N/A,,Clear,0,2013-01-10 12:15:00
6:35 AM,11.8,9.7,91,30.42,10.0,Calm,Calm,-,N/A,,Clear,0,2013-01-10 12:35:00
6:55 AM,15.4,13.5,92,30.41,10.0,East,3.5,-,N/A,,Clear,90,2013-01-10 12:55:00
7:15 AM,16.3,14.0,90,30.41,10.0,Calm,Calm,-,N/A,,Clear,0,2013-01-10 13:15:00
7:35 AM,16.7,14.0,89,30.41,10.0,Calm,Calm,-,N/A,,Clear,0,2013-01-10 13:35:00
7:55 AM,16.3,13.6,89,30.40,10.0,ESE,4.6,-,N/A,,Clear,110,2013-01-10 13:55:00
8:15 AM,16.0,13.3,89,30.40,10.0,East,4.6,-,N/A,,Clear,100,2013-01-10 14:15:00
8:35 AM,18.3,15.4,89,30.40,10.0,East,3.5,-,N/A,,Clear,80,2013-01-10 14:35:00
9:15 AM,21.0,16.7,83,30.39,10.0,East,4.6,-,N/A,,Clear,100,2013-01-10 15:15:00
9:35 AM,21.6,16.9,82,30.39,10.0,ESE,3.5,-,N/A,,Clear,110,2013-01-10 15:35:00
9:55 AM,23.2,17.1,77,30.38,10.0,East,4.6,-,N/A,,Clear,100,2013-01-10 15:55:00
10:15 AM,25.9,18.1,73,30.36,10.0,ESE,5.8,-,N/A,,Clear,110,2013-01-10 16:15:00
10:35 AM,28.4,18.5,66,30.35,10.0,ESE,4.6,-,N/A,,Clear,120,2013-01-10 16:35:00
10:55 AM,29.8,18.1,62,30.34,10.0,SE,8.1,-,N/A,,Clear,130,2013-01-10 16:55:00
11:15 AM,30.9,18.1,59,30.33,10.0,SE,8.1,-,N/A,,Clear,140,2013-01-10 17:15:00
11:35 AM,31.8,18.7,58,30.31,10.0,SE,6.9,-,N/A,,Clear,130,2013-01-10 17:35:00
11:55 AM,32.0,19.0,59,30.30,10.0,SE,5.8,-,N/A,,Clear,140,2013-01-10 17:55:00
12:15 PM,32.2,18.9,58,30.28,10.0,SSE,9.2,-,N/A,,Clear,160,2013-01-10 18:15:00
12:35 PM,32.9,19.0,57,30.26,10.0,SE,5.8,-,N/A,,Clear,140,2013-01-10 18:35:00
12:55 PM,33.3,19.6,57,30.26,10.0,SE,6.9,-,N/A,,Clear,130,2013-01-10 18:55:00
1:15 PM,32.2,20.5,62,30.25,10.0,East,8.1,-,N/A,,Clear,100,2013-01-10 19:15:00
1:35 PM,32.5,19.8,59,30.23,10.0,East,9.2,-,N/A,,Clear,100,2013-01-10 19:35:00
1:55 PM,32.4,20.3,61,30.21,10.0,East,8.1,-,N/A,,Clear,90,2013-01-10 19:55:00
2:15 PM,32.2,20.8,63,30.20,10.0,East,8.1,-,N/A,,Clear,100,2013-01-10 20:15:00
2:35 PM,32.5,20.3,61,30.20,10.0,ESE,10.4,-,N/A,,Clear,110,2013-01-10 20:35:00
2:55 PM,32.0,20.5,63,30.19,10.0,East,10.4,-,N/A,,Clear,90,2013-01-10 20:55:00
3:15 PM,31.6,21.6,66,30.20,10.0,East,8.1,-,N/A,,Clear,100,2013-01-10 21:15:00
3:35 PM,32.0,22.1,67,30.20,10.0,ESE,4.6,-,N/A,,Clear,120,2013-01-10 21:35:00
3:55 PM,32.0,22.8,69,30.19,10.0,East,9.2,-,N/A,,Clear,100,2013-01-10 21:55:00
4:15 PM,31.8,23.9,73,30.18,10.0,East,9.2,-,N/A,,Clear,90,2013-01-10 22:15:00
4:35 PM,31.6,24.3,74,30.17,10.0,East,6.9,-,N/A,,Clear,100,2013-01-10 22:35:00
4:55 PM,31.8,24.6,75,30.15,10.0,East,9.2,-,N/A,,Scattered Clouds,90,2013-01-10 22:55:00
5:15 PM,32.0,25.7,78,30.13,10.0,East,10.4,-,N/A,,Scattered Clouds,100,2013-01-10 23:15:00
5:35 PM,32.0,26.2,79,30.11,10.0,ENE,11.5,-,N/A,,Mostly Cloudy,70,2013-01-10 23:35:00
5:55 PM,32.2,27.1,82,30.11,10.0,East,11.5,17.3,N/A,,Mostly Cloudy,100,2013-01-10 23:55:00
6:15 PM,32.5,27.9,83,30.10,10.0,ESE,13.8,17.3,N/A,Rain,Light Rain,110,2013-01-11 00:15:00
6:35 PM,32.4,28.9,87,30.09,7.0,ESE,12.7,-,N/A,Rain,Light Rain,110,2013-01-11 00:35:00
6:55 PM,32.2,29.3,89,30.07,7.0,ESE,15.0,23.0,0.01,Rain,Light Rain,110,2013-01-11 00:55:00
7:15 PM,32.0,29.8,92,30.06,5.0,East,12.7,17.3,0.01,,Overcast,100,2013-01-11 01:15:00
7:35 PM,32.0,30.2,93,30.04,3.0,ESE,9.2,16.1,0.03,,Overcast,110,2013-01-11 01:35:00
7:55 PM,32.0,30.7,95,30.01,2.5,East,15.0,-,0.07,Rain,Light Rain,90,2013-01-11 01:55:00
8:15 PM,32.0,30.9,96,30.00,2.5,East,13.8,18.4,0.02,,Overcast,100,2013-01-11 02:15:00
8:35 PM,32.2,31.1,96,29.99,3.0,ESE,11.5,-,0.04,Rain,Light Rain,110,2013-01-11 02:35:00
8:55 PM,32.0,31.5,98,29.97,3.0,ESE,12.7,-,0.07,Rain,Light Rain,110,2013-01-11 02:55:00
9:15 PM,32.2,31.8,99,29.96,4.0,ESE,10.4,21.9,N/A,Rain,Light Rain,120,2013-01-11 03:15:00
9:35 PM,32.4,31.6,97,29.95,5.0,ESE,15.0,20.7,0.01,Rain,Light Rain,110,2013-01-11 03:35:00
9:55 PM,32.2,31.8,99,29.93,2.0,ESE,12.7,17.3,0.02,Rain,Light Rain,120,2013-01-11 03:55:00
10:15 PM,32.2,31.8,99,29.92,2.0,SE,9.2,-,N/A,Rain,Rain,130,2013-01-11 04:15:00
10:35 PM,32.2,31.8,99,29.90,3.0,ESE,9.2,-,N/A,,Drizzle,110,2013-01-11 04:35:00
10:55 PM,32.2,32.0,99,29.89,3.0,ESE,9.2,16.1,N/A,,Overcast,120,2013-01-11 04:55:00
11:15 PM,32.4,32.0,99,29.88,4.0,SE,11.5,17.3,N/A,Rain,Light Rain,130,2013-01-11 05:15:00
11:35 PM,32.4,32.0,99,29.88,4.0,SE,10.4,16.1,0.01,Rain,Light Rain,130,2013-01-11 05:35:00
11:55 PM,32.5,32.0,98,29.86,4.0,ESE,10.4,16.1,0.02,Rain,Light Rain,120,2013-01-11 05:55:00